Location: Mentone
(34.5413°N, 85.5351°W)
Time: 06:53:12
(UTC-05:00)

S-56A Canister/Altair - Visible Passes

Search period start: 24 May 2016 00:00
Search period end: 03 June 2016 00:00
Orbit: 641 x 2494 km, 38.9° (Epoch: 17 May)

Date Brightness Start Highest point End Pass type
(mag) Time Alt. Az. Time Alt. Az. Time Alt. Az.
24 May 10.4 04:55:24 10° S 05:02:26 21° SE 05:07:55 10° E visible
25 May 10.6 04:22:54 10° S 04:29:51 19° SE 04:35:22 10° ESE visible
26 May 10.7 03:50:29 10° S 03:57:12 17° SE 04:02:40 10° ESE visible
27 May 10.8 03:18:20 10° S 03:24:30 16° SE 03:29:47 10° ESE visible
28 May 11.0 02:47:41 12° SSE 02:51:46 14° SE 02:56:37 10° ESE visible
28 May 9.7 04:46:13 10° SW 04:56:55 43° SSE 05:04:15 10° E visible
29 May 11.1 02:16:58 12° SSE 02:19:00 12° SE 02:23:00 10° ESE visible
29 May 9.8 04:14:24 13° SSW 04:24:14 40° SSE 04:31:57 10° E visible
30 May 11.2 01:46:10 11° SE 01:46:11 11° SE 01:48:21 10° SE visible
30 May 10.0 03:43:36 19° SSW 03:51:29 37° SE 03:59:37 10° E visible
31 May 10.2 03:12:44 24° S 03:18:41 35° SE 03:27:10 10° E visible
01 Jun 10.3 02:41:48 27° S 02:45:51 32° SE 02:54:36 10° E visible
01 Jun 9.2 04:39:13 11° SW 04:51:16 73° SSE 04:59:28 10° ENE visible
02 Jun 10.4 02:10:48 28° SSE 02:12:58 29° SE 02:21:56 10° E visible
02 Jun 9.4 04:08:12 18° SW 04:18:29 68° SSE 04:27:13 10° ENE visible
